Flag for U.S.A. Weather past 2 weeks in New Salem, North Dakota, U.S.A.

Now
42 °F

Clear.


Feels Like: 38 °F
Forecast: 36 / 58 °F
Wind: 7 mph from East

Location: Bismarck Municipal Airport

Current Time: May 30, 2015 at 1:51:47 AM

Latest Report: May 30, 2015 at 12:52 AM


Visibility: 10 mi

Pressure: 30.34 "Hg

Humidity: 76%

Dew point: 35 °F

Location of New SalemLocation

Historic Weather in New Salem — Graph

°F

New Salem temperature yesterday

Maximum temperature yesterday: 61 °F (at 12:52 AM)
Minimum temperature yesterday: 47 °F (at 11:52 PM)
Average temperature yesterday: 53 °F

Past Weeks' High & Low Weather Summary

 TemperatureHumidityPressure
High82 °F (May 26, 3:52 PM)97% (May 16, 7:52 AM)30.51 "Hg (May 16, 7:52 AM)
Low27 °F (May 19, 4:52 AM)18% (May 21, 4:52 PM)29.57 "Hg (May 16, 6:52 PM)
Average56 °F67%30.04 "Hg
* Reported May 15 12:52 AM — May 30 12:52 AM, New Salem, Weather by CustomWeather, © 2015

Note: Actual official high and low records may vary slightly from our data, if they occured in-between our weather recording intervals... More about our weather records

Advertising

New Salem weather history for previous 24 hours

 ConditionsComfort  
Time TempWeatherWind HumidityBarometerVisibility
12:52 AM
Sat, May 30
42 °FClear.7 mph76%30.34 "Hg10 mi
11:52 PM
Fri, May 29
47 °FClear.7 mph61%30.32 "Hg10 mi
10:52 PM50 °FClear.7 mph52%30.33 "Hg10 mi
9:52 PM51 °FSunny.7 mph52%30.31 "Hg10 mi
8:52 PM54 °FSunny.8 mph47%30.30 "Hg10 mi
7:52 PM56 °FSunny.13 mph44%30.29 "Hg10 mi
6:52 PM57 °FSunny.13 mph42%30.27 "Hg10 mi
5:52 PM57 °FSunny.14 mph44%30.27 "Hg10 mi
4:52 PM58 °FPassing clouds.13 mph44%30.27 "Hg10 mi
3:52 PM55 °FPartly sunny.14 mph47%30.28 "Hg10 mi
2:52 PM54 °FOvercast.16 mph49%30.28 "Hg10 mi
1:52 PM53 °FOvercast.17 mph48%30.27 "Hg10 mi
12:52 PM52 °FOvercast.17 mph53%30.27 "Hg10 mi
11:52 AM52 °FOvercast.16 mph50%30.25 "Hg10 mi
10:52 AM51 °FOvercast.18 mph54%30.22 "Hg10 mi
10:02 AM50 °FMore clouds than sun.22 mph61%30.21 "Hg10 mi
9:52 AM50 °FMostly cloudy.20 mph63%30.21 "Hg10 mi
8:52 AM48 °FOvercast.18 mph80%30.19 "Hg10 mi
7:52 AM49 °FOvercast.18 mph80%30.16 "Hg10 mi
6:52 AM50 °FOvercast.17 mph80%30.12 "Hg10 mi
5:52 AM51 °FOvercast.15 mph83%30.09 "Hg10 mi
4:52 AM52 °FOvercast.16 mph83%30.07 "Hg10 mi
3:52 AM52 °FOvercast.23 mph83%30.03 "Hg10 mi
2:52 AM54 °FOvercast.17 mph83%30.01 "Hg10 mi
1:52 AM56 °FPassing clouds.20 mph81%29.98 "Hg10 mi
Weather by CustomWeather, © 2015

See weather overviewHow to use our weather pages